Terminal Aerodrome Forecast
Issued by NWS

Home | Current Version | Previous Version | Text Only | Print | Product List | Glossary On
Versions: 1 2 3 4 5 6 7 8 9 10 11 12 13 14 15 16 17 18 19 20 21 22 23 24 25 26 27 28 29 30 31 32 33 34 35 36 37 38
998
FTAK31 PAFA 062358 AAA
TAFAOM
TAF AMD
PAOM 062358Z 0700/0724 10011KT 1 1/2SM -SN BR OVC017
     FM070300 11012KT 3SM -SN BR OVC018=

USA.gov is the U.S. government's official web portal to all federal, state and local government web resources and services.